Year,Month,Day,Hour,Minute,Value (Times are PST for windgust in km/hr)
2015,08,06,00,00,4.80
2015,08,06,00,01,4.80
2015,08,06,00,02,3.20
2015,08,06,00,03,3.20
2015,08,06,00,04,4.80
2015,08,06,00,05,4.80
2015,08,06,00,06,4.80
2015,08,06,00,07,4.80
2015,08,06,00,08,3.20
2015,08,06,00,09,6.40
2015,08,06,00,10,3.20
2015,08,06,00,11,3.20
2015,08,06,00,12,4.80
2015,08,06,00,13,3.20
2015,08,06,00,14,4.80
2015,08,06,00,15,4.80
2015,08,06,00,16,3.20
2015,08,06,00,19,1.60
2015,08,06,00,20,3.20
2015,08,06,00,21,3.20
2015,08,06,00,22,3.20
2015,08,06,00,23,4.80
2015,08,06,00,24,3.20
2015,08,06,00,25,3.20
2015,08,06,00,26,4.80
2015,08,06,00,27,3.20
2015,08,06,00,28,4.80
2015,08,06,00,29,6.40
2015,08,06,00,30,6.40
2015,08,06,00,31,4.80
2015,08,06,00,32,3.20
2015,08,06,00,33,4.80
2015,08,06,00,34,4.80
2015,08,06,00,35,4.80
2015,08,06,00,36,4.80
2015,08,06,00,37,4.80
2015,08,06,00,38,4.80
2015,08,06,00,39,3.20
2015,08,06,00,40,4.80
2015,08,06,00,41,4.80
2015,08,06,00,42,4.80
2015,08,06,00,43,3.20
2015,08,06,00,44,4.80
2015,08,06,00,45,4.80
2015,08,06,00,46,4.80
2015,08,06,00,47,4.80
2015,08,06,00,48,4.80
2015,08,06,00,49,4.80
2015,08,06,00,50,8.10
2015,08,06,00,51,6.40
2015,08,06,00,52,4.80
2015,08,06,00,53,6.40
2015,08,06,00,54,4.80
2015,08,06,00,55,1.60
2015,08,06,00,56,3.20
2015,08,06,00,57,3.20
2015,08,06,00,59,1.60
2015,08,06,01,00,3.20
2015,08,06,01,01,1.60
2015,08,06,01,02,6.40
2015,08,06,01,03,4.80
2015,08,06,01,04,4.80
2015,08,06,01,05,8.10
2015,08,06,01,06,3.20
2015,08,06,01,07,3.20
2015,08,06,01,08,3.20
2015,08,06,01,09,3.20
2015,08,06,01,10,4.80
2015,08,06,01,11,4.80
2015,08,06,01,12,3.20
2015,08,06,01,13,1.60
2015,08,06,01,14,1.60
2015,08,06,01,15,1.60
2015,08,06,01,16,4.80
2015,08,06,01,17,3.20
2015,08,06,01,18,3.20
2015,08,06,01,19,3.20
2015,08,06,01,20,1.60
2015,08,06,01,21,1.60
2015,08,06,01,22,3.20
2015,08,06,01,23,1.60
2015,08,06,01,24,3.20
2015,08,06,01,25,3.20
2015,08,06,01,26,3.20
2015,08,06,01,27,1.60
2015,08,06,01,28,1.60
2015,08,06,01,29,1.60
2015,08,06,01,30,1.60
2015,08,06,01,31,3.20
2015,08,06,01,32,4.80
2015,08,06,01,33,4.80
2015,08,06,01,34,1.60
2015,08,06,01,36,3.20
2015,08,06,01,37,4.80
2015,08,06,01,38,4.80
2015,08,06,01,39,6.40
2015,08,06,01,40,4.80
2015,08,06,01,41,3.20
2015,08,06,01,43,1.60
2015,08,06,01,44,1.60
2015,08,06,01,46,1.60
2015,08,06,01,47,1.60
2015,08,06,01,48,3.20
2015,08,06,01,50,3.20
2015,08,06,01,51,1.60
2015,08,06,01,52,1.60
2015,08,06,01,54,1.60
2015,08,06,01,55,1.60
2015,08,06,01,56,1.60
2015,08,06,01,57,1.60
2015,08,06,01,58,1.60
2015,08,06,01,59,1.60
2015,08,06,02,03,1.60
2015,08,06,02,04,1.60
2015,08,06,02,05,3.20
2015,08,06,02,06,1.60
2015,08,06,02,08,3.20
2015,08,06,02,12,3.20
2015,08,06,02,13,3.20
2015,08,06,02,14,3.20
2015,08,06,02,15,3.20
2015,08,06,02,16,1.60
2015,08,06,02,26,1.60
2015,08,06,02,27,1.60
2015,08,06,02,32,1.60
2015,08,06,02,33,1.60
2015,08,06,02,34,1.60
2015,08,06,02,35,1.60
2015,08,06,02,38,1.60
2015,08,06,02,40,3.20
2015,08,06,02,41,1.60
2015,08,06,02,42,1.60
2015,08,06,02,43,1.60
2015,08,06,03,15,3.20
2015,08,06,03,16,1.60
2015,08,06,03,17,1.60
2015,08,06,03,18,1.60
2015,08,06,03,21,1.60
2015,08,06,03,22,1.60
2015,08,06,03,23,1.60
2015,08,06,03,24,1.60
2015,08,06,03,25,1.60
2015,08,06,03,26,1.60
2015,08,06,03,29,3.20
2015,08,06,03,30,1.60
2015,08,06,03,31,3.20
2015,08,06,03,32,3.20
2015,08,06,03,33,1.60
2015,08,06,03,34,4.80
2015,08,06,03,35,3.20
2015,08,06,03,36,3.20
2015,08,06,03,37,3.20
2015,08,06,03,38,3.20
2015,08,06,03,39,3.20
2015,08,06,03,40,3.20
2015,08,06,03,41,3.20
2015,08,06,03,48,1.60
2015,08,06,03,49,3.20
2015,08,06,03,50,1.60
2015,08,06,04,01,1.60
2015,08,06,04,21,1.60
2015,08,06,04,27,1.60
2015,08,06,04,48,3.20
2015,08,06,04,49,1.60
2015,08,06,04,50,1.60
2015,08,06,04,51,1.60
2015,08,06,04,53,3.20
2015,08,06,04,54,1.60
2015,08,06,04,55,3.20
2015,08,06,04,58,1.60
2015,08,06,04,59,1.60
2015,08,06,05,01,1.60
2015,08,06,05,24,1.60
2015,08,06,05,25,1.60
2015,08,06,05,26,1.60
2015,08,06,05,27,1.60
2015,08,06,06,13,1.60
2015,08,06,06,14,1.60
2015,08,06,06,18,1.60
2015,08,06,07,11,1.60
2015,08,06,07,13,3.20
2015,08,06,07,38,1.60
2015,08,06,07,44,1.60
2015,08,06,07,45,1.60
2015,08,06,07,46,1.60
2015,08,06,07,49,1.60
2015,08,06,07,50,1.60
2015,08,06,07,58,3.20
2015,08,06,07,59,1.60
2015,08,06,08,02,1.60
2015,08,06,08,03,1.60
2015,08,06,08,04,1.60
2015,08,06,08,05,1.60
2015,08,06,08,10,1.60
2015,08,06,08,12,1.60
2015,08,06,08,13,1.60
2015,08,06,08,14,1.60
2015,08,06,08,15,3.20
2015,08,06,08,16,1.60
2015,08,06,08,17,1.60
2015,08,06,08,18,1.60
2015,08,06,08,20,1.60
2015,08,06,08,22,3.20
2015,08,06,08,23,4.80
2015,08,06,08,24,3.20
2015,08,06,08,25,1.60
2015,08,06,08,26,1.60
2015,08,06,08,27,1.60
2015,08,06,08,28,1.60
2015,08,06,08,29,1.60
2015,08,06,08,30,3.20
2015,08,06,08,32,3.20
2015,08,06,08,33,1.60
2015,08,06,08,34,4.80
2015,08,06,08,35,4.80
2015,08,06,08,36,6.40
2015,08,06,08,37,4.80
2015,08,06,08,38,4.80
2015,08,06,08,39,6.40
2015,08,06,08,40,4.80
2015,08,06,08,41,3.20
2015,08,06,08,42,3.20
2015,08,06,08,43,3.20
2015,08,06,08,44,4.80
2015,08,06,08,45,6.40
2015,08,06,08,46,3.20
2015,08,06,08,47,3.20
2015,08,06,08,48,4.80
2015,08,06,08,49,4.80
2015,08,06,08,50,3.20
2015,08,06,08,51,4.80
2015,08,06,08,52,3.20
2015,08,06,08,53,1.60
2015,08,06,08,54,1.60
2015,08,06,08,55,1.60
2015,08,06,08,56,1.60
2015,08,06,08,57,3.20
2015,08,06,08,58,3.20
2015,08,06,08,59,1.60
2015,08,06,09,00,3.20
2015,08,06,09,01,3.20
2015,08,06,09,02,3.20
2015,08,06,09,03,4.80
2015,08,06,09,04,3.20
2015,08,06,09,05,6.40
2015,08,06,09,06,6.40
2015,08,06,09,07,4.80
2015,08,06,09,08,3.20
2015,08,06,09,09,3.20
2015,08,06,09,10,3.20
2015,08,06,09,11,3.20
2015,08,06,09,12,4.80
2015,08,06,09,13,3.20
2015,08,06,09,14,3.20
2015,08,06,09,15,3.20
2015,08,06,09,16,3.20
2015,08,06,09,17,3.20
2015,08,06,09,18,4.80
2015,08,06,09,19,4.80
2015,08,06,09,20,6.40
2015,08,06,09,21,4.80
2015,08,06,09,22,4.80
2015,08,06,09,24,6.40
2015,08,06,09,25,4.80
2015,08,06,09,26,3.20
2015,08,06,09,27,1.60
2015,08,06,09,28,3.20
2015,08,06,09,29,6.40
2015,08,06,09,30,3.20
2015,08,06,09,31,3.20
2015,08,06,09,32,1.60
2015,08,06,09,33,3.20
2015,08,06,09,34,3.20
2015,08,06,09,35,4.80
2015,08,06,09,36,6.40
2015,08,06,09,37,6.40
2015,08,06,09,38,3.20
2015,08,06,09,39,6.40
2015,08,06,09,40,3.20
2015,08,06,09,41,4.80
2015,08,06,09,42,1.60
2015,08,06,09,43,1.60
2015,08,06,09,44,4.80
2015,08,06,09,45,3.20
2015,08,06,09,46,4.80
2015,08,06,09,47,3.20
2015,08,06,09,49,3.20
2015,08,06,09,50,4.80
2015,08,06,09,51,3.20
2015,08,06,09,52,8.10
2015,08,06,09,53,4.80
2015,08,06,09,54,6.40
2015,08,06,09,55,4.80
2015,08,06,09,56,3.20
2015,08,06,09,57,4.80
2015,08,06,09,58,6.40
2015,08,06,09,59,6.40
2015,08,06,10,00,4.80
2015,08,06,10,01,3.20
2015,08,06,10,02,4.80
2015,08,06,10,03,1.60
2015,08,06,10,04,3.20
2015,08,06,10,05,6.40
2015,08,06,10,06,6.40
2015,08,06,10,07,4.80
2015,08,06,10,08,3.20
2015,08,06,10,09,4.80
2015,08,06,10,10,6.40
2015,08,06,10,11,4.80
2015,08,06,10,12,3.20
2015,08,06,10,13,3.20
2015,08,06,10,14,3.20
2015,08,06,10,15,3.20
2015,08,06,10,16,3.20
2015,08,06,10,17,3.20
2015,08,06,10,18,6.40
2015,08,06,10,19,1.60
2015,08,06,10,20,3.20
2015,08,06,10,21,1.60
2015,08,06,10,22,3.20
2015,08,06,10,23,4.80
2015,08,06,10,24,6.40
2015,08,06,10,25,4.80
2015,08,06,10,26,3.20
2015,08,06,10,27,3.20
2015,08,06,10,28,3.20
2015,08,06,10,29,4.80
2015,08,06,10,30,3.20
2015,08,06,10,31,8.10
2015,08,06,10,32,8.10
2015,08,06,10,33,4.80
2015,08,06,10,34,3.20
2015,08,06,10,35,1.60
2015,08,06,10,36,3.20
2015,08,06,10,37,1.60
2015,08,06,10,38,3.20
2015,08,06,10,39,3.20
2015,08,06,10,40,3.20
2015,08,06,10,41,6.40
2015,08,06,10,42,3.20
2015,08,06,10,43,4.80
2015,08,06,10,44,3.20
2015,08,06,10,45,3.20
2015,08,06,10,46,4.80
2015,08,06,10,47,4.80
2015,08,06,10,48,3.20
2015,08,06,10,49,1.60
2015,08,06,10,50,3.20
2015,08,06,10,51,1.60
2015,08,06,10,52,3.20
2015,08,06,10,53,4.80
2015,08,06,10,54,4.80
2015,08,06,10,55,6.40
2015,08,06,10,56,6.40
2015,08,06,10,57,4.80
2015,08,06,10,58,4.80
2015,08,06,10,59,8.10
2015,08,06,11,00,9.60
2015,08,06,11,01,4.80
2015,08,06,11,02,4.80
2015,08,06,11,03,3.20
2015,08,06,11,04,6.40
2015,08,06,11,05,6.40
2015,08,06,11,06,4.80
2015,08,06,11,07,4.80
2015,08,06,11,08,4.80
2015,08,06,11,09,4.80
2015,08,06,11,10,4.80
2015,08,06,11,11,8.10
2015,08,06,11,12,3.20
2015,08,06,11,13,6.40
2015,08,06,11,14,11.30
2015,08,06,11,15,4.80
2015,08,06,11,16,4.80
2015,08,06,11,17,9.60
2015,08,06,11,18,8.10
2015,08,06,11,19,8.10
2015,08,06,11,20,4.80
2015,08,06,11,21,4.80
2015,08,06,11,22,8.10
2015,08,06,11,23,8.10
2015,08,06,11,24,4.80
2015,08,06,11,25,6.40
2015,08,06,11,26,3.20
2015,08,06,11,27,3.20
2015,08,06,11,28,8.10
2015,08,06,11,29,4.80
2015,08,06,11,30,6.40
2015,08,06,11,31,3.20
2015,08,06,11,32,8.10
2015,08,06,11,33,4.80
2015,08,06,11,34,4.80
2015,08,06,11,35,6.40
2015,08,06,11,36,8.10
2015,08,06,11,37,8.10
2015,08,06,11,38,6.40
2015,08,06,11,39,4.80
2015,08,06,11,40,6.40
2015,08,06,11,41,3.20
2015,08,06,11,42,6.40
2015,08,06,11,43,4.80
2015,08,06,11,44,8.10
2015,08,06,11,45,8.10
2015,08,06,11,46,3.20
2015,08,06,11,47,1.60
2015,08,06,11,48,9.60
2015,08,06,11,49,4.80
2015,08,06,11,50,4.80
2015,08,06,11,51,6.40
2015,08,06,11,52,4.80
2015,08,06,11,53,4.80
2015,08,06,11,54,6.40
2015,08,06,11,55,9.60
2015,08,06,11,56,6.40
2015,08,06,11,57,9.60
2015,08,06,11,58,8.10
2015,08,06,11,59,6.40
2015,08,06,12,00,4.80
2015,08,06,12,01,9.60
2015,08,06,12,02,9.60
2015,08,06,12,03,6.40
2015,08,06,12,04,8.10
2015,08,06,12,05,9.60
2015,08,06,12,06,9.60
2015,08,06,12,07,9.60
2015,08,06,12,08,6.40
2015,08,06,12,09,3.20
2015,08,06,12,10,3.20
2015,08,06,12,11,4.80
2015,08,06,12,12,6.40
2015,08,06,12,13,4.80
2015,08,06,12,14,9.60
2015,08,06,12,15,9.60
2015,08,06,12,16,3.20
2015,08,06,12,17,3.20
2015,08,06,12,18,6.40
2015,08,06,12,19,8.10
2015,08,06,12,20,4.80
2015,08,06,12,21,8.10
2015,08,06,12,22,8.10
2015,08,06,12,23,4.80
2015,08,06,12,24,8.10
2015,08,06,12,25,8.10
2015,08,06,12,26,11.30
2015,08,06,12,27,6.40
2015,08,06,12,28,8.10
2015,08,06,12,29,6.40
2015,08,06,12,30,6.40
2015,08,06,12,31,4.80
2015,08,06,12,32,4.80
2015,08,06,12,33,8.10
2015,08,06,12,34,8.10
2015,08,06,12,35,9.60
2015,08,06,12,36,8.10
2015,08,06,12,37,4.80
2015,08,06,12,38,4.80
2015,08,06,12,39,4.80
2015,08,06,12,40,8.10
2015,08,06,12,41,6.40
2015,08,06,12,42,6.40
2015,08,06,12,43,17.70
2015,08,06,12,44,3.20
2015,08,06,12,45,4.80
2015,08,06,12,46,4.80
2015,08,06,12,47,6.40
2015,08,06,12,48,8.10
2015,08,06,12,49,12.90
2015,08,06,12,50,11.30
2015,08,06,12,51,8.10
2015,08,06,12,52,6.40
2015,08,06,12,53,8.10
2015,08,06,12,54,8.10
2015,08,06,12,55,9.60
2015,08,06,12,56,6.40
2015,08,06,12,57,8.10
2015,08,06,12,58,9.60
2015,08,06,12,59,12.90
2015,08,06,13,00,9.60
2015,08,06,13,01,12.90
2015,08,06,13,02,8.10
2015,08,06,13,03,12.90
2015,08,06,13,04,11.30
2015,08,06,13,05,8.10
2015,08,06,13,06,8.10
2015,08,06,13,07,11.30
2015,08,06,13,08,17.70
2015,08,06,13,09,11.30
2015,08,06,13,10,11.30
2015,08,06,13,11,9.60
2015,08,06,13,12,11.30
2015,08,06,13,13,8.10
2015,08,06,13,14,6.40
2015,08,06,13,15,14.50
2015,08,06,13,16,9.60
2015,08,06,13,17,8.10
2015,08,06,13,18,8.10
2015,08,06,13,19,6.40
2015,08,06,13,20,8.10
2015,08,06,13,21,6.40
2015,08,06,13,22,6.40
2015,08,06,13,23,14.50
2015,08,06,13,24,11.30
2015,08,06,13,25,6.40
2015,08,06,13,26,8.10
2015,08,06,13,27,3.20
2015,08,06,13,28,6.40
2015,08,06,13,29,8.10
2015,08,06,13,30,11.30
2015,08,06,13,31,12.90
2015,08,06,13,32,11.30
2015,08,06,13,33,8.10
2015,08,06,13,34,11.30
2015,08,06,13,35,9.60
2015,08,06,13,36,8.10
2015,08,06,13,37,8.10
2015,08,06,13,38,4.80
2015,08,06,13,39,9.60
2015,08,06,13,40,9.60
2015,08,06,13,41,8.10
2015,08,06,13,42,9.60
2015,08,06,13,43,9.60
2015,08,06,13,44,9.60
2015,08,06,13,45,9.60
2015,08,06,13,46,8.10
2015,08,06,13,47,14.50
2015,08,06,13,48,14.50
2015,08,06,13,49,9.60
2015,08,06,13,50,8.10
2015,08,06,13,51,3.20
2015,08,06,13,52,11.30
2015,08,06,13,53,9.60
2015,08,06,13,54,8.10
2015,08,06,13,55,3.20
2015,08,06,13,56,11.30
2015,08,06,13,57,6.40
2015,08,06,13,58,6.40
2015,08,06,13,59,11.30
2015,08,06,14,00,9.60
2015,08,06,14,01,6.40
2015,08,06,14,02,8.10
2015,08,06,14,03,12.90
2015,08,06,14,04,8.10
2015,08,06,14,05,9.60
2015,08,06,14,06,9.60
2015,08,06,14,07,6.40
2015,08,06,14,08,6.40
2015,08,06,14,09,9.60
2015,08,06,14,10,9.60
2015,08,06,14,11,8.10
2015,08,06,14,12,4.80
2015,08,06,14,13,9.60
2015,08,06,14,14,6.40
2015,08,06,14,15,14.50
2015,08,06,14,16,11.30
2015,08,06,14,17,8.10
2015,08,06,14,18,8.10
2015,08,06,14,19,16.10
2015,08,06,14,20,11.30
2015,08,06,14,21,3.20
2015,08,06,14,22,9.60
2015,08,06,14,23,4.80
2015,08,06,14,24,6.40
2015,08,06,14,25,8.10
2015,08,06,14,26,11.30
2015,08,06,14,27,11.30
2015,08,06,14,28,8.10
2015,08,06,14,29,9.60
2015,08,06,14,30,11.30
2015,08,06,14,31,8.10
2015,08,06,14,32,11.30
2015,08,06,14,33,6.40
2015,08,06,14,34,6.40
2015,08,06,14,35,8.10
2015,08,06,14,36,9.60
2015,08,06,14,37,9.60
2015,08,06,14,38,8.10
2015,08,06,14,39,8.10
2015,08,06,14,40,4.80
2015,08,06,14,41,4.80
2015,08,06,14,42,9.60
2015,08,06,14,43,4.80
2015,08,06,14,44,6.40
2015,08,06,14,45,9.60
2015,08,06,14,46,4.80
2015,08,06,14,47,6.40
2015,08,06,14,48,6.40
2015,08,06,14,49,4.80
2015,08,06,14,50,3.20
2015,08,06,14,51,8.10
2015,08,06,14,52,3.20
2015,08,06,14,53,3.20
2015,08,06,14,54,8.10
2015,08,06,14,55,8.10
2015,08,06,14,56,8.10
2015,08,06,14,57,11.30
2015,08,06,14,58,9.60
2015,08,06,14,59,4.80
2015,08,06,15,00,6.40
2015,08,06,15,01,6.40
2015,08,06,15,02,8.10
2015,08,06,15,03,8.10
2015,08,06,15,04,6.40
2015,08,06,15,05,6.40
2015,08,06,15,06,8.10
2015,08,06,15,07,4.80
2015,08,06,15,08,3.20
2015,08,06,15,09,1.60
2015,08,06,15,10,6.40
2015,08,06,15,11,9.60
2015,08,06,15,12,8.10
2015,08,06,15,13,8.10
2015,08,06,15,14,3.20
2015,08,06,15,15,6.40
2015,08,06,15,16,3.20
2015,08,06,15,17,4.80
2015,08,06,15,18,6.40
2015,08,06,15,19,8.10
2015,08,06,15,20,9.60
2015,08,06,15,21,11.30
2015,08,06,15,22,11.30
2015,08,06,15,23,9.60
2015,08,06,15,24,9.60
2015,08,06,15,25,9.60
2015,08,06,15,26,6.40
2015,08,06,15,27,8.10
2015,08,06,15,28,3.20
2015,08,06,15,29,6.40
2015,08,06,15,30,4.80
2015,08,06,15,31,6.40
2015,08,06,15,32,3.20
2015,08,06,15,33,4.80
2015,08,06,15,34,4.80
2015,08,06,15,35,3.20
2015,08,06,15,36,4.80
2015,08,06,15,37,3.20
2015,08,06,15,38,6.40
2015,08,06,15,39,8.10
2015,08,06,15,40,8.10
2015,08,06,15,41,14.50
2015,08,06,15,42,9.60
2015,08,06,15,43,8.10
2015,08,06,15,44,6.40
2015,08,06,15,45,4.80
2015,08,06,15,46,11.30
2015,08,06,15,47,9.60
2015,08,06,15,48,6.40
2015,08,06,15,49,9.60
2015,08,06,15,50,4.80
2015,08,06,15,51,4.80
2015,08,06,15,52,4.80
2015,08,06,15,53,3.20
2015,08,06,15,54,4.80
2015,08,06,15,55,6.40
2015,08,06,15,56,6.40
2015,08,06,15,57,11.30
2015,08,06,15,58,11.30
2015,08,06,15,59,11.30
2015,08,06,16,00,9.60
2015,08,06,16,01,8.10
2015,08,06,16,02,6.40
2015,08,06,16,03,4.80
2015,08,06,16,04,6.40
2015,08,06,16,05,14.50
2015,08,06,16,06,6.40
2015,08,06,16,07,12.90
2015,08,06,16,08,6.40
2015,08,06,16,09,8.10
2015,08,06,16,10,11.30
2015,08,06,16,11,11.30
2015,08,06,16,12,3.20
2015,08,06,16,13,11.30
2015,08,06,16,14,12.90
2015,08,06,16,15,6.40
2015,08,06,16,16,6.40
2015,08,06,16,17,8.10
2015,08,06,16,18,6.40
2015,08,06,16,19,4.80
2015,08,06,16,20,3.20
2015,08,06,16,21,8.10
2015,08,06,16,22,8.10
2015,08,06,16,23,3.20
2015,08,06,16,24,8.10
2015,08,06,16,25,11.30
2015,08,06,16,26,9.60
2015,08,06,16,27,6.40
2015,08,06,16,28,8.10
2015,08,06,16,29,8.10
2015,08,06,16,30,12.90
2015,08,06,16,31,11.30
2015,08,06,16,32,11.30
2015,08,06,16,33,9.60
2015,08,06,16,34,6.40
2015,08,06,16,35,6.40
2015,08,06,16,36,9.60
2015,08,06,16,37,8.10
2015,08,06,16,38,3.20
2015,08,06,16,39,3.20
2015,08,06,16,40,4.80
2015,08,06,16,41,4.80
2015,08,06,16,42,11.30
2015,08,06,16,43,4.80
2015,08,06,16,44,3.20
2015,08,06,16,45,6.40
2015,08,06,16,46,4.80
2015,08,06,16,47,11.30
2015,08,06,16,48,8.10
2015,08,06,16,49,3.20
2015,08,06,16,50,1.60
2015,08,06,16,51,6.40
2015,08,06,16,52,4.80
2015,08,06,16,53,4.80
2015,08,06,16,54,8.10
2015,08,06,16,55,6.40
2015,08,06,16,56,8.10
2015,08,06,16,57,12.90
2015,08,06,16,58,9.60
2015,08,06,16,59,4.80
2015,08,06,17,00,4.80
2015,08,06,17,01,3.20
2015,08,06,17,02,6.40
2015,08,06,17,03,4.80
2015,08,06,17,04,9.60
2015,08,06,17,05,16.10
2015,08,06,17,06,11.30
2015,08,06,17,07,9.60
2015,08,06,17,08,8.10
2015,08,06,17,09,11.30
2015,08,06,17,10,17.70
2015,08,06,17,11,11.30
2015,08,06,17,12,4.80
2015,08,06,17,13,9.60
2015,08,06,17,14,9.60
2015,08,06,17,15,6.40
2015,08,06,17,16,8.10
2015,08,06,17,17,8.10
2015,08,06,17,18,9.60
2015,08,06,17,19,9.60
2015,08,06,17,20,11.30
2015,08,06,17,21,11.30
2015,08,06,17,22,6.40
2015,08,06,17,23,8.10
2015,08,06,17,24,8.10
2015,08,06,17,25,4.80
2015,08,06,17,26,8.10
2015,08,06,17,27,8.10
2015,08,06,17,28,9.60
2015,08,06,17,29,12.90
2015,08,06,17,30,11.30
2015,08,06,17,31,8.10
2015,08,06,17,32,4.80
2015,08,06,17,33,3.20
2015,08,06,17,34,6.40
2015,08,06,17,35,4.80
2015,08,06,17,36,4.80
2015,08,06,17,37,9.60
2015,08,06,17,38,3.20
2015,08,06,17,39,8.10
2015,08,06,17,40,11.30
2015,08,06,17,41,9.60
2015,08,06,17,42,8.10
2015,08,06,17,43,6.40
2015,08,06,17,44,4.80
2015,08,06,17,45,8.10
2015,08,06,17,46,6.40
2015,08,06,17,47,4.80
2015,08,06,17,48,4.80
2015,08,06,17,49,16.10
2015,08,06,17,50,8.10
2015,08,06,17,51,6.40
2015,08,06,17,52,4.80
2015,08,06,17,53,3.20
2015,08,06,17,54,4.80
2015,08,06,17,55,9.60
2015,08,06,17,56,6.40
2015,08,06,17,57,8.10
2015,08,06,17,58,3.20
2015,08,06,17,59,4.80
2015,08,06,18,00,3.20
2015,08,06,18,01,1.60
2015,08,06,18,02,3.20
2015,08,06,18,03,4.80
2015,08,06,18,04,4.80
2015,08,06,18,05,8.10
2015,08,06,18,06,3.20
2015,08,06,18,07,8.10
2015,08,06,18,08,6.40
2015,08,06,18,09,4.80
2015,08,06,18,10,6.40
2015,08,06,18,11,3.20
2015,08,06,18,12,4.80
2015,08,06,18,13,3.20
2015,08,06,18,14,1.60
2015,08,06,18,15,3.20
2015,08,06,18,16,1.60
2015,08,06,18,17,4.80
2015,08,06,18,18,4.80
2015,08,06,18,19,4.80
2015,08,06,18,20,3.20
2015,08,06,18,21,4.80
2015,08,06,18,22,6.40
2015,08,06,18,23,1.60
2015,08,06,18,24,3.20
2015,08,06,18,25,3.20
2015,08,06,18,26,1.60
2015,08,06,18,27,1.60
2015,08,06,18,28,1.60
2015,08,06,18,29,6.40
2015,08,06,18,30,9.60
2015,08,06,18,31,6.40
2015,08,06,18,32,6.40
2015,08,06,18,33,4.80
2015,08,06,18,34,3.20
2015,08,06,18,35,1.60
2015,08,06,18,36,12.90
2015,08,06,18,37,9.60
2015,08,06,18,38,8.10
2015,08,06,18,39,9.60
2015,08,06,18,40,6.40
2015,08,06,18,41,6.40
2015,08,06,18,42,9.60
2015,08,06,18,43,3.20
2015,08,06,18,44,6.40
2015,08,06,18,45,8.10
2015,08,06,18,46,3.20
2015,08,06,18,47,4.80
2015,08,06,18,48,3.20
2015,08,06,18,49,6.40
2015,08,06,18,50,4.80
2015,08,06,18,51,4.80
2015,08,06,18,52,3.20
2015,08,06,18,53,4.80
2015,08,06,18,54,4.80
2015,08,06,18,55,6.40
2015,08,06,18,56,6.40
2015,08,06,18,57,8.10
2015,08,06,18,58,8.10
2015,08,06,18,59,8.10
2015,08,06,19,00,11.30
2015,08,06,19,01,6.40
2015,08,06,19,02,9.60
2015,08,06,19,03,8.10
2015,08,06,19,04,6.40
2015,08,06,19,05,6.40
2015,08,06,19,06,9.60
2015,08,06,19,07,6.40
2015,08,06,19,08,6.40
2015,08,06,19,09,9.60
2015,08,06,19,10,9.60
2015,08,06,19,11,8.10
2015,08,06,19,12,9.60
2015,08,06,19,13,9.60
2015,08,06,19,14,8.10
2015,08,06,19,15,11.30
2015,08,06,19,16,9.60
2015,08,06,19,17,6.40
2015,08,06,19,18,6.40
2015,08,06,19,19,8.10
2015,08,06,19,20,11.30
2015,08,06,19,21,9.60
2015,08,06,19,22,9.60
2015,08,06,19,23,6.40
2015,08,06,19,24,8.10
2015,08,06,19,25,9.60
2015,08,06,19,26,11.30
2015,08,06,19,27,9.60
2015,08,06,19,28,6.40
2015,08,06,19,29,6.40
2015,08,06,19,30,6.40
2015,08,06,19,31,6.40
2015,08,06,19,32,6.40
2015,08,06,19,33,6.40
2015,08,06,19,34,6.40
2015,08,06,19,35,6.40
2015,08,06,19,36,6.40
2015,08,06,19,37,8.10
2015,08,06,19,38,8.10
2015,08,06,19,39,6.40
2015,08,06,19,40,8.10
2015,08,06,19,41,8.10
2015,08,06,19,42,6.40
2015,08,06,19,43,8.10
2015,08,06,19,44,6.40
2015,08,06,19,45,6.40
2015,08,06,19,46,4.80
2015,08,06,19,47,8.10
2015,08,06,19,48,8.10
2015,08,06,19,49,6.40
2015,08,06,19,50,8.10
2015,08,06,19,51,4.80
2015,08,06,19,52,9.60
2015,08,06,19,53,8.10
2015,08,06,19,54,6.40
2015,08,06,19,55,4.80
2015,08,06,19,56,8.10
2015,08,06,19,57,6.40
2015,08,06,19,58,6.40
2015,08,06,19,59,6.40
2015,08,06,20,00,6.40
2015,08,06,20,01,6.40
2015,08,06,20,02,8.10
2015,08,06,20,03,9.60
2015,08,06,20,04,6.40
2015,08,06,20,05,4.80
2015,08,06,20,06,6.40
2015,08,06,20,07,8.10
2015,08,06,20,08,6.40
2015,08,06,20,09,6.40
2015,08,06,20,10,6.40
2015,08,06,20,11,6.40
2015,08,06,20,12,8.10
2015,08,06,20,13,6.40
2015,08,06,20,14,8.10
2015,08,06,20,15,6.40
2015,08,06,20,16,8.10
2015,08,06,20,17,6.40
2015,08,06,20,18,6.40
2015,08,06,20,19,9.60
2015,08,06,20,20,6.40
2015,08,06,20,21,9.60
2015,08,06,20,22,6.40
2015,08,06,20,23,6.40
2015,08,06,20,24,8.10
2015,08,06,20,25,6.40
2015,08,06,20,26,8.10
2015,08,06,20,27,8.10
2015,08,06,20,28,8.10
2015,08,06,20,29,4.80
2015,08,06,20,30,8.10
2015,08,06,20,31,8.10
2015,08,06,20,32,8.10
2015,08,06,20,33,6.40
2015,08,06,20,34,6.40
2015,08,06,20,35,4.80
2015,08,06,20,36,6.40
2015,08,06,20,37,6.40
2015,08,06,20,38,6.40
2015,08,06,20,39,6.40
2015,08,06,20,40,6.40
2015,08,06,20,41,6.40
2015,08,06,20,42,6.40
2015,08,06,20,43,4.80
2015,08,06,20,44,9.60
2015,08,06,20,45,4.80
2015,08,06,20,46,4.80
2015,08,06,20,47,8.10
2015,08,06,20,48,8.10
2015,08,06,20,49,6.40
2015,08,06,20,50,8.10
2015,08,06,20,51,4.80
2015,08,06,20,52,8.10
2015,08,06,20,53,8.10
2015,08,06,20,54,6.40
2015,08,06,20,55,6.40
2015,08,06,20,56,6.40
2015,08,06,20,57,6.40
2015,08,06,20,58,4.80
2015,08,06,20,59,9.60
2015,08,06,21,00,4.80
2015,08,06,21,01,9.60
2015,08,06,21,02,6.40
2015,08,06,21,03,4.80
2015,08,06,21,04,9.60
2015,08,06,21,05,8.10
2015,08,06,21,06,6.40
2015,08,06,21,07,8.10
2015,08,06,21,08,11.30
2015,08,06,21,09,6.40
2015,08,06,21,10,8.10
2015,08,06,21,11,6.40
2015,08,06,21,12,4.80
2015,08,06,21,13,6.40
2015,08,06,21,14,4.80
2015,08,06,21,15,4.80
2015,08,06,21,16,4.80
2015,08,06,21,17,6.40
2015,08,06,21,18,6.40
2015,08,06,21,19,6.40
2015,08,06,21,20,6.40
2015,08,06,21,21,4.80
2015,08,06,21,22,6.40
2015,08,06,21,23,6.40
2015,08,06,21,24,6.40
2015,08,06,21,25,6.40
2015,08,06,21,26,6.40
2015,08,06,21,27,8.10
2015,08,06,21,28,4.80
2015,08,06,21,29,6.40
2015,08,06,21,30,6.40
2015,08,06,21,31,8.10
2015,08,06,21,32,6.40
2015,08,06,21,33,4.80
2015,08,06,21,34,4.80
2015,08,06,21,35,8.10
2015,08,06,21,36,6.40
2015,08,06,21,37,6.40
2015,08,06,21,38,4.80
2015,08,06,21,39,6.40
2015,08,06,21,40,8.10
2015,08,06,21,41,8.10
2015,08,06,21,42,6.40
2015,08,06,21,43,6.40
2015,08,06,21,44,6.40
2015,08,06,21,45,6.40
2015,08,06,21,46,6.40
2015,08,06,21,47,8.10
2015,08,06,21,48,4.80
2015,08,06,21,49,4.80
2015,08,06,21,50,4.80
2015,08,06,21,51,4.80
2015,08,06,21,52,4.80
2015,08,06,21,53,4.80
2015,08,06,21,54,4.80
2015,08,06,21,55,4.80
2015,08,06,21,56,4.80
2015,08,06,21,57,6.40
2015,08,06,21,58,4.80
2015,08,06,21,59,4.80
2015,08,06,22,00,4.80
2015,08,06,22,01,4.80
2015,08,06,22,02,3.20
2015,08,06,22,03,3.20
2015,08,06,22,04,4.80
2015,08,06,22,05,4.80
2015,08,06,22,06,3.20
2015,08,06,22,07,4.80
2015,08,06,22,08,4.80
2015,08,06,22,09,3.20
2015,08,06,22,10,6.40
2015,08,06,22,11,4.80
2015,08,06,22,12,3.20
2015,08,06,22,13,4.80
2015,08,06,22,14,4.80
2015,08,06,22,15,3.20
2015,08,06,22,16,3.20
2015,08,06,22,17,3.20
2015,08,06,22,18,3.20
2015,08,06,22,19,3.20
2015,08,06,22,20,3.20
2015,08,06,22,21,3.20
2015,08,06,22,22,1.60
2015,08,06,22,23,1.60
2015,08,06,22,24,3.20
2015,08,06,22,25,1.60
2015,08,06,22,26,4.80
2015,08,06,22,27,3.20
2015,08,06,22,28,3.20
2015,08,06,22,29,3.20
2015,08,06,22,30,1.60
2015,08,06,22,31,1.60
2015,08,06,22,32,3.20
2015,08,06,22,33,3.20
2015,08,06,22,34,4.80
2015,08,06,22,35,3.20
2015,08,06,22,36,3.20
2015,08,06,22,37,3.20
2015,08,06,22,38,3.20
2015,08,06,22,39,4.80
2015,08,06,22,40,3.20
2015,08,06,22,41,1.60
2015,08,06,22,42,4.80
2015,08,06,22,43,3.20
2015,08,06,22,44,3.20
2015,08,06,22,45,3.20
2015,08,06,22,46,3.20
2015,08,06,22,47,3.20
2015,08,06,22,48,3.20
2015,08,06,22,49,3.20
2015,08,06,22,50,3.20
2015,08,06,22,51,3.20
2015,08,06,22,52,3.20
2015,08,06,22,53,1.60
2015,08,06,22,54,1.60
2015,08,06,22,55,1.60
2015,08,06,22,56,1.60
2015,08,06,22,57,3.20
2015,08,06,22,58,3.20
2015,08,06,22,59,3.20
2015,08,06,23,00,1.60
2015,08,06,23,01,3.20
2015,08,06,23,02,3.20
2015,08,06,23,03,1.60
2015,08,06,23,04,1.60
2015,08,06,23,06,1.60
2015,08,06,23,07,1.60